Regional Weather Roundup
Issued by NWS

Home | Current Version | Previous Version | Text Only | Print | Product List | Glossary Off
Versions: 1 2 3 4 5 6 7 8 9 10 11 12 13 14 15 16 17 18 19 20 21 22 23 24 25 26 27 28 29 30 31 32 33 34 35 36 37 38 39 40 41 42 43 44 45 46 47 48 49 50

000
ASUS43 KFSD 190602
RWRSD

WEATHER ROUNDUP FOR SOUTH DAKOTA
NATIONAL WEATHER SERVICE SIOUX FALLS SD
1200 AM CST FRI DEC 19 2014

NOTE: "FAIR" INDICATES FEW OR NO CLOUDS BELOW 12,000 FEET WITH NO
SIGNIFICANT WEATHER AND/OR OBSTRUCTIONS TO VISIBILITY.


SDZ001>005-009-010-012>017-190700-
NORTHWEST AND NORTH CENTRAL SOUTH DAKOTA

CITY           SKY/WX    TMP DP  RH WIND       PRES   REMARKS
BUFFALO          N/A     26  21  81 W10       29.89S WCI  16
FAITH            N/A     23  19  85 S10       29.99S WCI  12
MOBRIDGE       CLEAR     22  20  92 SE7       30.00S WCI  13
$$

SDZ012>016-024>037-041>051-057-063-072>074-190700-
SOUTHWEST AND SOUTH CENTRAL SOUTH DAKOTA

CITY           SKY/WX    TMP DP  RH WIND       PRES   REMARKS
RAPID CTY ARPT CLEAR     26  18  71 W6        30.01S WCI  19
PIERRE         CLEAR     15  14  95 S5        30.06S FOG     WCI   8
CUSTER         CLEAR     22  18  85 CALM      30.00R
ELLSWORTH AFB  CLEAR     27  20  72 W9        30.00S WCI  18
PHILIP         CLEAR     15  12  88 W6        30.05S WCI   6
PINE RIDGE     CLEAR     22  15  75 S6        30.06R WCI  14
WINNER         FAIR      25  20  81 VRB3      30.08R
$$

SDZ004>011-016>023-039-040-190700-
NORTHEAST SOUTH DAKOTA

CITY           SKY/WX    TMP DP  RH WIND       PRES   REMARKS
ABERDEEN       CLOUDY    27  24  89 S9        30.12S WCI  18
WATERTOWN      CLOUDY    25  23  92 S7        30.13R FOG     WCI  17
SISSETON         N/A     22  21  96 S12       30.15F WCI  10
$$

SDZ017-020-022-023-036>040-048>070-190700-
SOUTHEAST SOUTH DAKOTA

CITY           SKY/WX    TMP DP  RH WIND       PRES   REMARKS
SIOUX FALLS    CLOUDY    27  24  89 S8        30.18R WCI  19
HURON          CLOUDY    27  24  89 S7        30.14S FOG     WCI  19
MITCHELL       CLOUDY    29  26  89 S8        30.17R WCI  21
YANKTON        CLOUDY    28  25  86 S8        30.20S WCI  20
$$

ABBREVIATIONS USED IN REMARKS
   TC - TEMPERATURE IN CELSIUS
  WCI - WIND CHILL INDEX
   HX - HEAT INDEX
  VSB - VISIBILITY




USA.gov is the U.S. government's official web portal to all federal, state and local government web resources and services.